Flag for Germany Weather past 2 weeks in Neuwied, Rhineland-Palatinate, Germany

Now
45 °F

Quite cool.


Feels Like: 40 °F
Forecast: 30 / 54 °F
Wind: 8 mph from Southwest

Location: Buechel

Current Time: Mar 6, 2015 at 5:24:03 PM

Latest Report: Mar 6, 2015 at 4:20 PM


Visibility: N/A

Pressure: 30.54 "Hg

Humidity: 53%

Dew point: 28 °F

Location of NeuwiedLocation

Historic Weather in Neuwied — Graph

°F

Neuwied temperature yesterday

Maximum temperature yesterday: 41 °F (at 2:20 PM)
Minimum temperature yesterday: 34 °F (at 12:20 AM)
Average temperature yesterday: 37 °F

Past Weeks' High & Low Weather Summary

 TemperatureHumidityPressure
High46 °F (Mar 1, 1:20 PM)100% (Feb 19, 3:20 PM)30.60 "Hg (Feb 19, 3:20 PM)
Low27 °F (Feb 28, 3:20 AM)46% (Mar 2, 2:20 PM)29.39 "Hg (Feb 21, 4:20 AM)
Average35 °F86%29.93 "Hg
* Reported Feb 19 3:20 PM — Mar 6 3:20 PM, Neuwied, Weather by CustomWeather, © 2015

Note: Actual official high and low records may vary slightly from our data, if they occured in-between our weather recording intervals... More about our weather records

Advertising

Neuwied weather history for previous 24 hours

 ConditionsComfort  
Time TempWeatherWind HumidityBarometerVisibility
3:20 PM
Fri, Mar 6
45 °FQuite cool.9 mph57%30.54 "HgN/A
2:20 PM45 °FQuite cool.9 mph61%30.54 "HgN/A
2:00 PM43 °FBroken clouds.9 mph61%30.54 "HgN/A
1:20 PM43 °FPartly sunny.9 mph61%30.57 "HgN/A
12:20 PM43 °FBroken clouds.9 mph66%30.60 "HgN/A
11:20 AM41 °FBroken clouds.6 mph70%30.60 "HgN/A
10:20 AM37 °FPartly sunny.7 mph81%30.60 "HgN/A
9:20 AM36 °FPartly sunny.7 mph81%30.60 "Hg5 mi
8:20 AM34 °FPartly sunny.6 mph87%30.60 "Hg4 mi
7:20 AM32 °FPartly sunny.5 mph87%30.60 "HgN/A
6:20 AM32 °FPassing clouds.6 mph93%30.60 "HgN/A
5:20 AM32 °FPassing clouds.5 mph93%30.60 "Hg6 mi
4:20 AM32 °FChilly.5 mph87%30.60 "Hg6 mi
3:20 AM32 °FChilly.5 mph87%30.57 "Hg6 mi
2:20 AM34 °FChilly.6 mph81%30.60 "HgN/A
1:20 AM34 °FChilly.5 mph81%30.60 "HgN/A
12:20 AM36 °FChilly.5 mph75%30.60 "HgN/A
11:20 PM
Thu, Mar 5
36 °FChilly.5 mph75%30.60 "HgN/A
10:20 PM36 °FChilly.5 mph75%30.60 "HgN/A
9:20 PM37 °FChilly.3 mph75%30.60 "HgN/A
8:20 PM37 °FChilly.3 mph75%30.60 "HgN/A
7:20 PM39 °FChilly.3 mph65%30.60 "HgN/A
6:20 PM39 °FChilly.6 mph61%30.60 "HgN/A
5:20 PM41 °FBroken clouds.9 mph57%30.57 "HgN/A
Weather by CustomWeather, © 2015

See weather overviewHow to use our weather pages